Location: Unspecified
(42.9300°N, 71.1866°W)
Time: 17:51:35
(UTC-04:00)

CZ-3 Stage 3 - Visible Passes

Search period start: 26 May 2018 00:00
Search period end: 05 June 2018 00:00
Orbit: 421 x 34774 km, 30.9° (Epoch: 25 May)

Date Brightness Start Highest point End Pass type
(mag) Time Alt. Az. Time Alt. Az. Time Alt. Az.
26 May 7.9 00:34:19 12° SSE 08:13:18 62° S 08:33:06 10° E visible
26 May 9.2 23:39:47 10° ESE 03:52:41 39° SE 04:50:18 10° E visible
28 May 6.0 04:33:41 10° SW 05:58:21 13° SW 11:59:01 10° SE visible
29 May 8.0 00:32:26 14° SSE 08:03:27 63° S 08:23:29 10° E visible
29 May 9.1 23:24:50 10° ESE 03:42:14 40° SE 04:40:45 10° E visible
31 May 6.1 04:16:48 10° SW 05:47:35 14° SW 11:49:22 10° SE visible
01 Jun 8.0 00:30:14 16° SSE 07:53:32 63° S 08:13:50 10° E visible
01 Jun 9.1 23:09:56 10° ESE 03:31:41 41° SE 04:31:09 10° E visible
03 Jun 6.1 04:00:40 10° SW 05:36:47 14° SW 11:39:40 10° SE visible
04 Jun 8.0 00:27:30 17° SSE 07:43:34 64° S 08:04:10 10° E visible
